Location: Newark
(35.6799°N, 139.7636°E)
Time: 15:03:34
(UTC+00:00)

Explorer 7 - Pass Details

Date: 08 December 2019
Orbit: 485 x 679 km, 50.3° (Epoch: 24 January)

Event Time Altitude Azimuth Distance (km) Brightness Sun altitude
Rises 15:05:03 0° 296° (WNW) 2,941 - -75.3°
Reaches altitude 10° 15:07:53 10° 280° (W) 1,994 - -75.0°
Maximum altitude 15:11:17 21° 232° (SW) 1,377 - -74.6°
Drops below altitude 10° 15:14:32 10° 184° (S) 1,893 - -74.2°
Sets 15:17:09 0° 167° (SSE) 2,747 - -73.9°
